Southwest Washington Regional Airport
KKLS : now visible

Airfield :











YOU CAN JOIN US ON...

 
LOGIN :

Register | Disclaimer

   EN    FR    IT 

 









Legend :    VFR   Marginal VFR   IFR   Intensive IFR   Very Intensive IFR
Visi :
Ceiling :
>= 8 km
>= 3000ft
5 to 8 km
1000 to 3000 ft
1500m to 5 km
500 to 1000 ft
800 to 1500m
200 to 500 ft
< 800m
< 200 ft
Symbols :   Thunderstorms  Fog  Heavy snow  Heavy precipitations  Wind > 20 kt






- Airport Elevation : 20 ft


KKLS - Southwest Washington Regional

CURRENT METAR :
  • 271556Z AUTO 24003KT 10SM OVC035 13/09 A3019 RMK AO2 SLP228 T01280089

EXPIRED METARs :
  • 271456Z AUTO 00000KT 10SM OVC037 11/09 A3019 RMK AO2 SLP226 T01060089 53005
  • 271356Z AUTO 00000KT 10SM BKN037 09/08 A3018 RMK AO2 SLP224 T00940083
  • 271337Z AUTO 00000KT 10SM FEW026 BKN039 09/08 A3018 RMK AO2
  • 271256Z AUTO 00000KT 10SM OVC028 08/08 A3017 RMK AO2 SLP221 T00830078
  • 271156Z AUTO 00000KT 10SM BKN055 08/07 A3017 RMK AO2 SLP219 T00780067 10117 20078 53002

TAF N/A
KZSE FIR / North America



MET'MAP, your aeronautical weather chart ! - Copyright ORBIFLY December 2007 - Disclaimer

ORBIFLY MET'MAP TEAM :

Programming & Development : Alexandra Zaïnal
Original concept : Baudouin d'Aumeries
Technical & hardware support : Manuel Goepfert
Assistance : Marc-Olivier Méhu




SOURCES & CREDITS :

   NOAA       Earth
Advisory